{"data":{"norad_id":50825,"epoch":"2026-09-20T00:14:06.072000Z","epoch_age_seconds":90629,"freshness":"FRESH","line1":"1 50825U 22001Y   26263.00979250  .00000719  00000+0  34936-4 0  9991","line2":"2 50825  53.1609   6.1167 0001073  81.3228 278.7894 15.31697427259884","mean_motion":15.31697427,"eccentricity":0.0001073,"inclination_deg":53.1609,"raan_deg":6.1167,"arg_perigee_deg":81.3228,"mean_anomaly_deg":278.7894,"bstar":3.4936e-5,"rev_number":25988,"period_min":94.013345887797,"perigee_km":470.01277989092,"apogee_km":471.48255054007,"semimajor_km":6848.8846652155,"source":"CELESTRAK","updated_at":"2026-09-20T09:00:39.578883Z"}}